TimePDT,TemperatureF,Dew PointF,Humidity,Sea Level PressureIn,VisibilityMPH,Wind Direction,Wind SpeedMPH,Gust SpeedMPH,PrecipitationIn,Events,Conditions,WindDirDegrees,DateUTC
12:55 AM,57.0,32.0,39,29.83,10.0,Calm,Calm,-,N/A,,Partly Cloudy,0,2012-10-20 07:55:00
1:55 AM,55.0,30.9,40,29.82,10.0,SSE,3.5,-,N/A,,Partly Cloudy,160,2012-10-20 08:55:00
2:55 AM,61.0,26.1,26,29.79,10.0,WNW,12.7,-,N/A,,Partly Cloudy,290,2012-10-20 09:55:00
3:55 AM,62.1,25.0,24,29.77,10.0,NW,13.8,-,N/A,,Clear,310,2012-10-20 10:55:00
4:55 AM,61.0,24.1,24,29.78,10.0,West,10.4,-,N/A,,Clear,280,2012-10-20 11:55:00
5:55 AM,60.1,25.0,26,29.76,10.0,West,9.2,-,N/A,,Clear,260,2012-10-20 12:55:00
6:55 AM,57.9,28.0,32,29.78,10.0,WNW,8.1,-,N/A,,Scattered Clouds,290,2012-10-20 13:55:00
7:55 AM,57.0,28.9,34,29.78,10.0,NNE,5.8,-,N/A,,Scattered Clouds,30,2012-10-20 14:55:00
8:55 AM,60.1,30.0,32,29.78,10.0,North,3.5,-,N/A,,Partly Cloudy,10,2012-10-20 15:55:00
9:55 AM,64.9,30.9,28,29.78,10.0,ENE,5.8,-,N/A,,Partly Cloudy,60,2012-10-20 16:55:00
10:55 AM,70.0,28.0,21,29.75,10.0,WNW,16.1,19.6,N/A,,Scattered Clouds,300,2012-10-20 17:55:00
11:55 AM,73.0,27.0,18,29.73,10.0,West,8.1,21.9,N/A,,Scattered Clouds,260,2012-10-20 18:55:00
12:55 PM,73.9,27.0,18,29.70,10.0,West,8.1,26.5,N/A,,Scattered Clouds,260,2012-10-20 19:55:00
1:55 PM,73.0,27.0,18,29.69,10.0,WNW,21.9,32.2,N/A,,Scattered Clouds,290,2012-10-20 20:55:00
2:55 PM,73.0,25.0,17,29.67,10.0,West,11.5,25.3,N/A,,Scattered Clouds,270,2012-10-20 21:55:00
3:55 PM,72.0,23.0,16,29.66,10.0,West,13.8,-,N/A,,Mostly Cloudy,260,2012-10-20 22:55:00
4:55 PM,70.0,18.0,14,29.67,10.0,West,18.4,23.0,N/A,,Mostly Cloudy,270,2012-10-20 23:55:00
5:55 PM,66.9,24.1,20,29.68,10.0,West,11.5,-,N/A,,Scattered Clouds,260,2012-10-21 00:55:00
6:55 PM,63.0,30.0,29,29.68,10.0,WNW,13.8,-,N/A,,Scattered Clouds,290,2012-10-21 01:55:00
7:55 PM,61.0,33.1,35,29.72,10.0,West,15.0,-,N/A,,Partly Cloudy,280,2012-10-21 02:55:00
8:55 PM,59.0,34.0,39,29.72,10.0,WNW,17.3,24.2,N/A,,Clear,290,2012-10-21 03:55:00
9:55 PM,57.0,36.0,45,29.72,10.0,WNW,18.4,25.3,N/A,,Clear,290,2012-10-21 04:55:00
10:55 PM,55.9,36.0,47,29.73,10.0,WNW,15.0,-,N/A,,Scattered Clouds,290,2012-10-21 05:55:00
11:55 PM,55.0,36.0,49,29.72,10.0,West,12.7,-,N/A,,Scattered Clouds,280,2012-10-21 06:55:00